| time (UTC) | temp F | wind direction | speed MPH | gust MPH | rain 1hr in | rain 24hr in | rain mn in | humidity % | barometer mb |
| 20260510032119 | 53 | 72 | 4.0 | 5.0 | 0.00 | 0.00 | 0.00 | 58 | 1011.0 |
| 20260510031614 | 53 | 80 | 5.0 | 7.0 | 0.00 | 0.00 | 0.00 | 58 | 1010.9 |
| 20260510031111 | 53 | 82 | 4.0 | 8.0 | 0.00 | 0.00 | 0.00 | 57 | 1011.0 |
| 20260510030605 | 54 | 62 | 4.0 | 5.0 | 0.00 | 0.00 | 0.00 | 57 | 1011.0 |
| 20260510030103 | 54 | 55 | 3.0 | 5.0 | 0.00 | 0.00 | 0.00 | 57 | 1010.7 |
| 20260510025559 | 54 | 61 | 5.0 | 6.0 | 0.00 | 0.00 | 0.00 | 56 | 1010.6 |
| 20260510025052 | 54 | 93 | 1.0 | 4.0 | 0.00 | 0.00 | 0.00 | 56 | 1010.7 |
| 20260510024548 | 55 | 95 | 4.0 | 6.0 | 0.00 | 0.00 | 0.00 | 55 | 1010.6 |
| 20260510024045 | 55 | 108 | 2.0 | 5.0 | 0.00 | 0.00 | 0.00 | 54 | 1010.7 |
| 20260510023541 | 55 | 104 | 3.0 | 5.0 | 0.00 | 0.00 | 0.00 | 54 | 1010.5 |
| 20260510023038 | 55 | 17 | 2.0 | 7.0 | 0.00 | 0.00 | 0.00 | 53 | 1010.5 |
| 20260510022538 | 56 | 87 | 5.0 | 7.0 | 0.00 | 0.00 | 0.00 | 52 | 1010.4 |
| 20260510022032 | 56 | 89 | 3.0 | 7.0 | 0.00 | 0.00 | 0.00 | 53 | 1010.3 |
| 20260510021529 | 56 | 102 | 2.0 | 4.0 | 0.00 | 0.00 | 0.00 | 53 | 1010.0 |
| 20260510021026 | 57 | 89 | 2.0 | 7.0 | 0.00 | 0.00 | 0.00 | 52 | 1010.0 |
| 20260510020521 | 57 | 123 | 3.0 | 7.0 | 0.00 | 0.00 | 0.00 | 51 | 1009.8 |
| 20260510020016 | 58 | 75 | 5.0 | 7.0 | 0.00 | 0.00 | 0.00 | 48 | 1009.5 |
| 20260510015512 | 58 | 48 | 2.0 | 6.0 | 0.00 | 0.00 | 0.00 | 48 | 1009.5 |
| 20260510015008 | 59 | 80 | 7.0 | 9.0 | 0.00 | 0.00 | 0.00 | 47 | 1009.5 |
| 20260510014505 | 59 | 16 | 1.0 | 8.0 | 0.00 | 0.00 | 0.00 | 48 | 1009.6 |
| 20260510014002 | 59 | 106 | 4.0 | 10.0 | 0.00 | 0.00 | 0.00 | 47 | 1009.1 |
| 20260510013456 | 59 | 65 | 3.0 | 7.0 | 0.00 | 0.00 | 0.00 | 49 | 1009.0 |
| 20260510012953 | 60 | 52 | 3.0 | 6.0 | 0.00 | 0.00 | 0.00 | 48 | 1008.7 |
| 20260510012447 | 61 | 51 | 3.0 | 12.0 | 0.00 | 0.00 | 0.00 | 46 | 1008.5 |
| 20260510011942 | 62 | 42 | 4.0 | 12.0 | 0.00 | 0.00 | 0.00 | 44 | 1008.7 |
| 20260510011437 | 66 | 330 | 2.0 | 5.0 | 0.00 | 0.00 | 0.00 | 40 | 1007.9 |
| 20260510010934 | 66 | 290 | 3.0 | 6.0 | 0.00 | 0.00 | 0.00 | 39 | 1007.9 |
| 20260510010432 | 66 | 299 | 3.0 | 6.0 | 0.00 | 0.00 | 0.00 | 39 | 1007.6 |
| 20260510005928 | 67 | 342 | 4.0 | 9.0 | 0.00 | 0.00 | 0.00 | 38 | 1007.6 |
| 20260510005424 | 67 | 281 | 2.0 | 5.0 | 0.00 | 0.00 | 0.00 | 38 | 1007.4 |
| 20260510004921 | 68 | 313 | 6.0 | 9.0 | 0.00 | 0.00 | 0.00 | 37 | 1007.4 |
| 20260510004419 | 68 | 300 | 3.0 | 6.0 | 0.00 | 0.00 | 0.00 | 39 | 1007.2 |
| 20260510003917 | 68 | 248 | 3.0 | 5.0 | 0.00 | 0.00 | 0.00 | 44 | 1007.2 |
| 20260510003414 | 68 | 281 | 2.0 | 5.0 | 0.00 | 0.00 | 0.00 | 44 | 1007.3 |
| 20260510002913 | 68 | 290 | 0.0 | 5.0 | 0.00 | 0.00 | 0.00 | 45 | 1007.0 |
| 20260510002410 | 69 | 300 | 8.0 | 8.0 | 0.00 | 0.00 | 0.00 | 43 | 1006.9 |
| 20260510001906 | 69 | 247 | 6.0 | 7.0 | 0.00 | 0.00 | 0.00 | 44 | 1006.8 |
| 20260510001404 | 69 | 272 | 3.0 | 11.0 | 0.00 | 0.00 | 0.00 | 43 | 1006.8 |
| 20260510000901 | 69 | 274 | 6.0 | 15.0 | 0.00 | 0.00 | 0.00 | 43 | 1006.7 |
| 20260510000357 | 69 | 266 | 4.0 | 13.0 | 0.00 | 0.00 | 0.00 | 43 | 1006.4 |
| 20260509235854 | 69 | 259 | 3.0 | 9.0 | 0.00 | 0.00 | 0.00 | 43 | 1006.4 |
| 20260509235350 | 69 | 258 | 3.0 | 10.0 | 0.00 | 0.00 | 0.00 | 43 | 1006.4 |
| 20260509234847 | 70 | 225 | 4.0 | 13.0 | 0.00 | 0.00 | 0.00 | 41 | 1006.3 |
| 20260509234344 | 70 | 266 | 6.0 | 12.0 | 0.00 | 0.00 | 0.00 | 41 | 1006.4 |
| 20260509233842 | 71 | 269 | 5.0 | 17.0 | 0.00 | 0.00 | 0.00 | 40 | 1006.4 |
| 20260509233339 | 70 | 259 | 5.0 | 14.0 | 0.00 | 0.00 | 0.00 | 41 | 1006.2 |
| 20260509232835 | 70 | 273 | 5.0 | 9.0 | 0.00 | 0.00 | 0.00 | 40 | 1006.3 |
| 20260509232333 | 71 | 235 | 7.0 | 16.0 | 0.00 | 0.00 | 0.00 | 39 | 1006.2 |
| 20260509231828 | 71 | 276 | 5.0 | 10.0 | 0.00 | 0.00 | 0.00 | 39 | 1006.1 |
| 20260509231326 | 71 | 237 | 9.0 | 19.0 | 0.00 | 0.00 | 0.00 | 38 | 1006.0 |
| 20260509230823 | 72 | 247 | 12.0 | 22.0 | 0.00 | 0.00 | 0.00 | 39 | 1006.0 |
| 20260509230320 | 72 | 251 | 13.0 | 16.0 | 0.00 | 0.00 | 0.00 | 38 | 1006.0 |
| 20260509225815 | 72 | 251 | 9.0 | 18.0 | 0.00 | 0.00 | 0.00 | 37 | 1006.0 |
| 20260509225312 | 73 | 229 | 3.0 | 20.0 | 0.00 | 0.00 | 0.00 | 38 | 1005.8 |
| 20260509224808 | 73 | 252 | 7.0 | 15.0 | 0.00 | 0.00 | 0.00 | 37 | 1005.6 |
| 20260509224305 | 73 | 247 | 11.0 | 26.0 | 0.00 | 0.00 | 0.00 | 36 | 1005.6 |
| 20260509223801 | 72 | 241 | 3.0 | 17.0 | 0.00 | 0.00 | 0.00 | 37 | 1005.7 |
| 20260509223259 | 72 | 225 | 5.0 | 19.0 | 0.00 | 0.00 | 0.00 | 36 | 1005.7 |
| 20260509222755 | 73 | 248 | 8.0 | 21.0 | 0.00 | 0.00 | 0.00 | 35 | 1005.2 |
| 20260509222250 | 73 | 266 | 8.0 | 15.0 | 0.00 | 0.00 | 0.00 | 36 | 1005.2 |
| 20260509221747 | 73 | 263 | 2.0 | 13.0 | 0.00 | 0.00 | 0.00 | 36 | 1005.4 |
| 20260509221243 | 71 | 249 | 10.0 | 19.0 | 0.00 | 0.00 | 0.00 | 35 | 1005.4 |
| 20260509220739 | 71 | 279 | 3.0 | 20.0 | 0.00 | 0.00 | 0.00 | 36 | 1005.2 |
| 20260509220236 | 72 | 233 | 8.0 | 22.0 | 0.00 | 0.00 | 0.00 | 34 | 1005.2 |
| 20260509215731 | 71 | 237 | 9.0 | 20.0 | 0.00 | 0.00 | 0.00 | 35 | 1005.3 |
| 20260509215228 | 72 | 283 | 9.0 | 21.0 | 0.00 | 0.00 | 0.00 | 34 | 1005.1 |
| 20260509214725 | 72 | 287 | 9.0 | 12.0 | 0.00 | 0.00 | 0.00 | 34 | 1005.2 |
| 20260509214222 | 72 | 258 | 10.0 | 36.0 | 0.00 | 0.00 | 0.00 | 33 | 1004.9 |
| 20260509213719 | 73 | 252 | 6.0 | 24.0 | 0.00 | 0.00 | 0.00 | 35 | 1004.8 |
| 20260509213214 | 73 | 239 | 6.0 | 12.0 | 0.00 | 0.00 | 0.00 | 34 | 1004.8 |
| 20260509212712 | 72 | 250 | 17.0 | 18.0 | 0.00 | 0.00 | 0.00 | 34 | 1004.7 |
| 20260509212209 | 72 | 252 | 7.0 | 19.0 | 0.00 | 0.00 | 0.00 | 33 | 1005.1 |
| 20260509211705 | 73 | 253 | 6.0 | 12.0 | 0.00 | 0.00 | 0.00 | 34 | 1004.8 |
| 20260509211201 | 73 | 287 | 8.0 | 23.0 | 0.00 | 0.00 | 0.00 | 32 | 1004.8 |
| 20260509210658 | 73 | 277 | 6.0 | 11.0 | 0.00 | 0.00 | 0.00 | 33 | 1004.7 |
| 20260509210150 | 72 | 255 | 4.0 | 13.0 | 0.00 | 0.00 | 0.00 | 32 | 1004.6 |
| 20260509205645 | 72 | 232 | 5.0 | 11.0 | 0.00 | 0.00 | 0.00 | 33 | 1004.8 |
| 20260509205144 | 72 | 288 | 5.0 | 10.0 | 0.00 | 0.00 | 0.00 | 33 | 1004.8 |
| 20260509204641 | 72 | 269 | 8.0 | 13.0 | 0.00 | 0.00 | 0.00 | 32 | 1004.9 |
| 20260509204137 | 72 | 223 | 2.0 | 15.0 | 0.00 | 0.00 | 0.00 | 32 | 1004.6 |
| 20260509203633 | 72 | 241 | 6.0 | 13.0 | 0.00 | 0.00 | 0.00 | 32 | 1004.6 |
| 20260509203132 | 72 | 247 | 5.0 | 15.0 | 0.00 | 0.00 | 0.00 | 33 | 1004.8 |
| 20260509202631 | 71 | 272 | 3.0 | 13.0 | 0.00 | 0.00 | 0.00 | 33 | 1004.8 |
| 20260509202127 | 71 | 275 | 4.0 | 15.0 | 0.00 | 0.00 | 0.00 | 31 | 1004.5 |
| 20260509201622 | 71 | 254 | 5.0 | 7.0 | 0.00 | 0.00 | 0.00 | 33 | 1004.8 |
| 20260509201120 | 72 | 250 | 4.0 | 15.0 | 0.00 | 0.00 | 0.00 | 32 | 1004.5 |
| 20260509200615 | 72 | 254 | 6.0 | 12.0 | 0.00 | 0.00 | 0.00 | 31 | 1004.6 |
| 20260509200111 | 72 | 180 | 3.0 | 13.0 | 0.00 | 0.00 | 0.00 | 31 | 1004.5 |
| 20260509195606 | 72 | 290 | 4.0 | 18.0 | 0.00 | 0.00 | 0.00 | 31 | 1004.6 |
| 20260509195056 | 72 | 261 | 6.0 | 13.0 | 0.00 | 0.00 | 0.00 | 32 | 1004.8 |
| 20260509194555 | 73 | 287 | 8.0 | 18.0 | 0.00 | 0.00 | 0.00 | 32 | 1004.7 |
| 20260509194054 | 73 | 249 | 8.0 | 21.0 | 0.00 | 0.00 | 0.00 | 31 | 1004.6 |
| 20260509193549 | 74 | 231 | 6.0 | 16.0 | 0.00 | 0.00 | 0.00 | 30 | 1004.6 |
| 20260509193045 | 75 | 266 | 7.0 | 15.0 | 0.00 | 0.00 | 0.00 | 30 | 1004.8 |
| 20260509192542 | 75 | 280 | 4.0 | 11.0 | 0.00 | 0.00 | 0.00 | 32 | 1004.5 |
| 20260509192037 | 74 | 251 | 6.0 | 19.0 | 0.00 | 0.00 | 0.00 | 30 | 1004.6 |
| 20260509191531 | 74 | 263 | 7.0 | 11.0 | 0.00 | 0.00 | 0.00 | 30 | 1004.7 |
| 20260509191027 | 74 | 245 | 4.0 | 8.0 | 0.00 | 0.00 | 0.00 | 32 | 1004.7 |
| 20260509190525 | 74 | 243 | 8.0 | 14.0 | 0.00 | 0.00 | 0.00 | 30 | 1004.7 |
| 20260509190023 | 74 | 282 | 5.0 | 10.0 | 0.00 | 0.00 | 0.00 | 33 | 1004.8 |
| 20260509185520 | 74 | 263 | 6.0 | 24.0 | 0.00 | 0.00 | 0.00 | 32 | 1004.8 |
| 20260509185016 | 74 | 245 | 4.0 | 14.0 | 0.00 | 0.00 | 0.00 | 32 | 1004.8 |
| 20260509184514 | 74 | 203 | 2.0 | 13.0 | 0.00 | 0.00 | 0.00 | 32 | 1004.7 |
| 20260509184010 | 74 | 260 | 9.0 | 12.0 | 0.00 | 0.00 | 0.00 | 31 | 1004.9 |
| 20260509183505 | 77 | 303 | 13.0 | 13.0 | 0.00 | 0.00 | 0.00 | 34 | 1004.5 |
| 20260509183002 | 75 | 266 | 5.0 | 19.0 | 0.00 | 0.00 | 0.00 | 34 | 1004.6 |
| 20260509182458 | 75 | 268 | 7.0 | 12.0 | 0.00 | 0.00 | 0.00 | 34 | 1004.4 |
| 20260509181955 | 73 | 253 | 6.0 | 9.0 | 0.00 | 0.00 | 0.00 | 38 | 1004.4 |
| 20260509181453 | 76 | 272 | 5.0 | 9.0 | 0.00 | 0.00 | 0.00 | 39 | 1004.6 |
| 20260509180951 | 75 | 239 | 8.0 | 16.0 | 0.00 | 0.00 | 0.00 | 39 | 1004.4 |
| 20260509180446 | 75 | 223 | 3.0 | 9.0 | 0.00 | 0.00 | 0.00 | 42 | 1004.5 |
| 20260509175943 | 75 | 225 | 13.0 | 21.0 | 0.00 | 0.00 | 0.00 | 37 | 1004.2 |
| 20260509175439 | 73 | 222 | 4.0 | 13.0 | 0.00 | 0.00 | 0.00 | 45 | 1004.7 |
| 20260509174936 | 72 | 227 | 4.0 | 14.0 | 0.00 | 0.00 | 0.00 | 43 | 1005.0 |
| 20260509174432 | 72 | 268 | 5.0 | 12.0 | 0.00 | 0.00 | 0.00 | 42 | 1004.6 |
| 20260509173927 | 72 | 226 | 5.0 | 18.0 | 0.00 | 0.00 | 0.00 | 43 | 1004.7 |
| 20260509173421 | 73 | 257 | 2.0 | 15.0 | 0.00 | 0.00 | 0.00 | 44 | 1004.8 |
| 20260509172918 | 72 | 242 | 9.0 | 22.0 | 0.00 | 0.00 | 0.00 | 43 | 1004.8 |
| 20260509172415 | 72 | 288 | 6.0 | 11.0 | 0.00 | 0.00 | 0.00 | 47 | 1004.8 |
| 20260509171911 | 71 | 226 | 16.0 | 20.0 | 0.00 | 0.00 | 0.00 | 44 | 1004.7 |
| 20260509171407 | 72 | 290 | 5.0 | 11.0 | 0.00 | 0.00 | 0.00 | 48 | 1004.9 |
| 20260509170903 | 70 | 235 | 6.0 | 22.0 | 0.00 | 0.00 | 0.00 | 51 | 1005.0 |
| 20260509170359 | 70 | 243 | 8.0 | 12.0 | 0.00 | 0.00 | 0.00 | 53 | 1004.7 |
| 20260509165855 | 70 | 236 | 6.0 | 11.0 | 0.00 | 0.00 | 0.00 | 53 | 1004.6 |
| 20260509165349 | 71 | 251 | 8.0 | 12.0 | 0.00 | 0.00 | 0.00 | 53 | 1004.8 |
| 20260509164845 | 70 | 236 | 6.0 | 8.0 | 0.00 | 0.00 | 0.00 | 59 | 1004.7 |
| 20260509164341 | 69 | 219 | 5.0 | 15.0 | 0.00 | 0.00 | 0.00 | 60 | 1004.9 |
| 20260509163838 | 68 | 224 | 4.0 | 13.0 | 0.00 | 0.00 | 0.00 | 61 | 1004.7 |
| 20260509163334 | 69 | 237 | 5.0 | 11.0 | 0.00 | 0.00 | 0.00 | 58 | 1005.0 |
| 20260509162833 | 68 | 192 | 7.0 | 9.0 | 0.00 | 0.00 | 0.00 | 61 | 1004.8 |
| 20260509162326 | 68 | 246 | 4.0 | 11.0 | 0.00 | 0.00 | 0.00 | 63 | 1004.9 |
| 20260509161823 | 68 | 253 | 4.0 | 9.0 | 0.00 | 0.00 | 0.00 | 65 | 1005.1 |
| 20260509161319 | 67 | 236 | 5.0 | 11.0 | 0.00 | 0.00 | 0.00 | 65 | 1004.9 |
| 20260509160815 | 66 | 233 | 9.0 | 13.0 | 0.00 | 0.00 | 0.00 | 67 | 1004.9 |
| 20260509160311 | 66 | 300 | 2.0 | 15.0 | 0.00 | 0.00 | 0.00 | 69 | 1005.0 |
| 20260509155806 | 65 | 231 | 7.0 | 16.0 | 0.00 | 0.00 | 0.00 | 68 | 1005.1 |
| 20260509155306 | 66 | 253 | 3.0 | 9.0 | 0.00 | 0.00 | 0.00 | 69 | 1005.0 |
| 20260509154759 | 65 | 212 | 7.0 | 16.0 | 0.00 | 0.00 | 0.00 | 70 | 1004.9 |
| 20260509154256 | 64 | 256 | 10.0 | 15.0 | 0.00 | 0.00 | 0.00 | 70 | 1005.2 |
| 20260509153753 | 64 | 210 | 10.0 | 15.0 | 0.00 | 0.00 | 0.00 | 72 | 1005.0 |
| 20260509153249 | 64 | 228 | 5.0 | 12.0 | 0.00 | 0.00 | 0.00 | 72 | 1005.1 |
| 20260509152746 | 64 | 214 | 2.0 | 16.0 | 0.00 | 0.00 | 0.00 | 72 | 1005.1 |
| 20260509152242 | 64 | 258 | 9.0 | 9.0 | 0.00 | 0.00 | 0.00 | 72 | 1005.2 |
| 20260509151739 | 64 | 251 | 4.0 | 9.0 | 0.00 | 0.00 | 0.00 | 72 | 1005.2 |
| 20260509151236 | 64 | 261 | 4.0 | 10.0 | 0.00 | 0.00 | 0.00 | 72 | 1005.2 |
| 20260509150734 | 64 | 261 | 3.0 | 10.0 | 0.00 | 0.00 | 0.00 | 73 | 1005.3 |
| 20260509150232 | 63 | 246 | 6.0 | 11.0 | 0.00 | 0.00 | 0.00 | 74 | 1005.2 |
| 20260509145728 | 62 | 241 | 7.0 | 13.0 | 0.00 | 0.00 | 0.00 | 74 | 1005.2 |
| 20260509145223 | 62 | 214 | 8.0 | 19.0 | 0.00 | 0.00 | 0.00 | 75 | 1004.9 |
| 20260509144719 | 62 | 222 | 13.0 | 13.0 | 0.00 | 0.00 | 0.00 | 77 | 1005.0 |
| 20260509144216 | 61 | 257 | 6.0 | 13.0 | 0.00 | 0.00 | 0.00 | 78 | 1004.9 |
| 20260509143714 | 60 | 253 | 9.0 | 11.0 | 0.00 | 0.00 | 0.00 | 79 | 1004.9 |
| 20260509143211 | 60 | 210 | 4.0 | 17.0 | 0.00 | 0.00 | 0.00 | 80 | 1005.1 |
| 20260509142706 | 60 | 240 | 7.0 | 18.0 | 0.00 | 0.00 | 0.00 | 79 | 1004.9 |
| 20260509142203 | 60 | 232 | 5.0 | 10.0 | 0.00 | 0.00 | 0.00 | 80 | 1005.2 |
| 20260509141659 | 60 | 241 | 6.0 | 12.0 | 0.00 | 0.00 | 0.00 | 80 | 1005.2 |
| 20260509141156 | 59 | 238 | 10.0 | 15.0 | 0.00 | 0.00 | 0.00 | 81 | 1005.3 |
| 20260509140652 | 60 | 247 | 5.0 | 10.0 | 0.00 | 0.00 | 0.00 | 80 | 1005.1 |
| 20260509140151 | 59 | 232 | 5.0 | 15.0 | 0.00 | 0.00 | 0.00 | 81 | 1005.0 |
| 20260509135648 | 59 | 240 | 7.0 | 16.0 | 0.00 | 0.00 | 0.00 | 82 | 1004.8 |
| 20260509135146 | 58 | 227 | 5.0 | 11.0 | 0.00 | 0.00 | 0.00 | 83 | 1004.9 |
| 20260509134642 | 58 | 212 | 1.0 | 11.0 | 0.00 | 0.00 | 0.00 | 83 | 1004.8 |
| 20260509134139 | 58 | 224 | 5.0 | 8.0 | 0.00 | 0.00 | 0.00 | 82 | 1004.9 |
| 20260509133636 | 58 | 252 | 4.0 | 17.0 | 0.00 | 0.00 | 0.00 | 83 | 1004.9 |
| 20260509133134 | 58 | 241 | 5.0 | 10.0 | 0.00 | 0.00 | 0.00 | 83 | 1005.2 |
| 20260509132632 | 57 | 214 | 6.0 | 16.0 | 0.00 | 0.00 | 0.00 | 84 | 1005.1 |
| 20260509132130 | 57 | 201 | 8.0 | 12.0 | 0.00 | 0.00 | 0.00 | 84 | 1005.1 |
| 20260509131626 | 57 | 258 | 7.0 | 24.0 | 0.00 | 0.00 | 0.00 | 85 | 1005.0 |
| 20260509131123 | 57 | 228 | 3.0 | 10.0 | 0.00 | 0.00 | 0.00 | 85 | 1004.7 |
| 20260509130619 | 57 | 233 | 3.0 | 12.0 | 0.00 | 0.00 | 0.00 | 87 | 1005.0 |
| 20260509130115 | 56 | 241 | 2.0 | 8.0 | 0.00 | 0.00 | 0.00 | 88 | 1004.7 |
| 20260509125612 | 55 | 242 | 4.0 | 14.0 | 0.00 | 0.00 | 0.00 | 90 | 1005.0 |
| 20260509125109 | 55 | 204 | 9.0 | 9.0 | 0.00 | 0.00 | 0.00 | 91 | 1005.0 |
| 20260509124605 | 54 | 214 | 4.0 | 10.0 | 0.00 | 0.00 | 0.00 | 92 | 1004.9 |
| 20260509124102 | 54 | 194 | 7.0 | 12.0 | 0.00 | 0.00 | 0.00 | 94 | 1005.0 |
| 20260509123600 | 53 | 252 | 7.0 | 13.0 | 0.00 | 0.00 | 0.00 | 95 | 1005.0 |
| 20260509123056 | 53 | 220 | 2.0 | 7.0 | 0.00 | 0.00 | 0.00 | 96 | 1004.8 |
| 20260509122552 | 52 | 217 | 3.0 | 9.0 | 0.00 | 0.00 | 0.00 | 97 | 1004.8 |
| 20260509122050 | 51 | 210 | 7.0 | 14.0 | 0.00 | 0.00 | 0.00 | 97 | 1005.1 |
| 20260509121546 | 51 | 169 | 3.0 | 10.0 | 0.00 | 0.00 | 0.00 | 98 | 1004.8 |
| 20260509121048 | 52 | 182 | 7.0 | 9.0 | 0.00 | 0.00 | 0.00 | 98 | 1004.8 |
| 20260509120542 | 51 | 207 | 1.0 | 8.0 | 0.00 | 0.00 | 0.00 | 99 | 1004.8 |
| 20260509120040 | 51 | 194 | 5.0 | 9.0 | 0.00 | 0.00 | 0.00 | 99 | 1004.7 |
| 20260509115536 | 51 | 204 | 9.0 | 12.0 | 0.00 | 0.00 | 0.00 | 99 | 1005.0 |
| 20260509115034 | 50 | 225 | 3.0 | 3.0 | 0.00 | 0.00 | 0.00 | 99 | 1005.0 |
| 20260509114532 | 50 | 275 | 3.0 | 7.0 | 0.00 | 0.00 | 0.00 | 99 | 1005.0 |
| 20260509114031 | 50 | 331 | 2.0 | 7.0 | 0.00 | 0.00 | 0.00 | 99 | 1004.5 |
| 20260509113529 | 50 | 220 | 6.0 | 9.0 | 0.00 | 0.00 | 0.00 | 99 | 1004.1 |
| 20260509113027 | 50 | 202 | 5.0 | 9.0 | 0.00 | 0.00 | 0.00 | 99 | 1004.2 |
| 20260509112523 | 50 | 204 | 2.0 | 9.0 | 0.00 | 0.00 | 0.00 | 99 | 1004.0 |
| 20260509112019 | 50 | 207 | 5.0 | 11.0 | 0.00 | 0.00 | 0.00 | 99 | 1004.0 |
| 20260509111517 | 50 | 223 | 5.0 | 12.0 | 0.00 | 0.00 | 0.00 | 99 | 1004.1 |
| 20260509111014 | 50 | 214 | 5.0 | 13.0 | 0.00 | 0.00 | 0.00 | 99 | 1004.3 |
| 20260509110510 | 50 | 209 | 5.0 | 9.0 | 0.00 | 0.00 | 0.00 | 99 | 1004.3 |
| 20260509110008 | 50 | 212 | 4.0 | 13.0 | 0.00 | 0.00 | 0.00 | 99 | 1004.1 |
| 20260509105506 | 50 | 197 | 9.0 | 15.0 | 0.00 | 0.00 | 0.00 | 99 | 1004.3 |
| 20260509105004 | 50 | 207 | 10.0 | 11.0 | 0.00 | 0.00 | 0.00 | 99 | 1004.2 |
| 20260509104500 | 50 | 173 | 3.0 | 11.0 | 0.00 | 0.00 | 0.00 | 99 | 1004.3 |
| 20260509103957 | 50 | 137 | 2.0 | 13.0 | 0.00 | 0.00 | 0.00 | 99 | 1004.2 |
| 20260509103455 | 50 | 173 | 5.0 | 8.0 | 0.00 | 0.00 | 0.00 | 99 | 1004.4 |
| 20260509102953 | 50 | 194 | 5.0 | 13.0 | 0.00 | 0.00 | 0.00 | 99 | 1004.2 |
| 20260509102450 | 50 | 203 | 6.0 | 10.0 | 0.00 | 0.00 | 0.00 | 99 | 1004.6 |
| 20260509101946 | 50 | 189 | 3.0 | 10.0 | 0.00 | 0.00 | 0.00 | 98 | 1004.5 |
| 20260509101442 | 50 | 192 | 3.0 | 9.0 | 0.00 | 0.00 | 0.00 | 98 | 1004.7 |
| 20260509100940 | 50 | 213 | 4.0 | 10.0 | 0.00 | 0.00 | 0.00 | 98 | 1004.5 |
| 20260509100437 | 50 | 201 | 9.0 | 11.0 | 0.00 | 0.00 | 0.00 | 98 | 1004.6 |
| 20260509095933 | 50 | 202 | 2.0 | 13.0 | 0.00 | 0.00 | 0.00 | 98 | 1004.8 |
| 20260509095431 | 50 | 201 | 6.0 | 12.0 | 0.00 | 0.00 | 0.00 | 98 | 1004.6 |
| 20260509094928 | 50 | 193 | 9.0 | 12.0 | 0.00 | 0.00 | 0.00 | 98 | 1004.8 |
| 20260509094424 | 50 | 197 | 2.0 | 9.0 | 0.00 | 0.00 | 0.00 | 98 | 1004.7 |
| 20260509093922 | 50 | 203 | 3.0 | 8.0 | 0.00 | 0.00 | 0.00 | 98 | 1004.8 |
| 20260509093419 | 50 | 202 | 4.0 | 7.0 | 0.00 | 0.00 | 0.00 | 98 | 1004.8 |
| 20260509092917 | 50 | 181 | 2.0 | 10.0 | 0.00 | 0.00 | 0.00 | 98 | 1004.6 |
| 20260509092415 | 50 | 214 | 5.0 | 10.0 | 0.00 | 0.00 | 0.00 | 98 | 1005.0 |
| 20260509091913 | 50 | 192 | 2.0 | 6.0 | 0.00 | 0.00 | 0.00 | 98 | 1004.9 |
| 20260509091409 | 50 | 211 | 2.0 | 7.0 | 0.00 | 0.00 | 0.00 | 98 | 1004.9 |
| 20260509090907 | 50 | 212 | 7.0 | 9.0 | 0.00 | 0.00 | 0.00 | 98 | 1005.0 |
| 20260509090404 | 50 | 195 | 4.0 | 7.0 | 0.00 | 0.00 | 0.00 | 97 | 1005.3 |
| 20260509085901 | 51 | 222 | 3.0 | 7.0 | 0.00 | 0.00 | 0.00 | 97 | 1005.0 |
| 20260509085358 | 51 | 212 | 5.0 | 8.0 | 0.00 | 0.00 | 0.00 | 97 | 1005.0 |
| 20260509084854 | 51 | 216 | 2.0 | 9.0 | 0.00 | 0.00 | 0.00 | 97 | 1005.2 |
| 20260509084351 | 51 | 211 | 5.0 | 8.0 | 0.00 | 0.00 | 0.00 | 97 | 1005.0 |
| 20260509083849 | 51 | 254 | 1.0 | 7.0 | 0.00 | 0.00 | 0.00 | 97 | 1005.1 |
| 20260509083346 | 51 | 211 | 3.0 | 7.0 | 0.00 | 0.00 | 0.00 | 97 | 1005.2 |
| 20260509082842 | 51 | 208 | 3.0 | 8.0 | 0.00 | 0.00 | 0.00 | 97 | 1005.0 |
| 20260509082339 | 51 | 203 | 3.0 | 7.0 | 0.00 | 0.00 | 0.00 | 96 | 1005.2 |
| 20260509081837 | 51 | 199 | 5.0 | 7.0 | 0.00 | 0.00 | 0.00 | 96 | 1004.9 |
| 20260509081333 | 51 | 208 | 3.0 | 6.0 | 0.00 | 0.00 | 0.00 | 96 | 1005.0 |
| 20260509080832 | 51 | 197 | 3.0 | 10.0 | 0.00 | 0.00 | 0.00 | 96 | 1004.9 |
| 20260509080329 | 51 | 214 | 4.0 | 8.0 | 0.00 | 0.00 | 0.00 | 96 | 1005.1 |
| 20260509075827 | 51 | 216 | 7.0 | 10.0 | 0.00 | 0.00 | 0.00 | 96 | 1005.0 |
| 20260509075324 | 51 | 211 | 6.0 | 9.0 | 0.00 | 0.00 | 0.00 | 95 | 1004.9 |
| 20260509074821 | 51 | 220 | 2.0 | 9.0 | 0.00 | 0.00 | 0.00 | 95 | 1005.2 |
| 20260509074319 | 51 | 226 | 3.0 | 7.0 | 0.00 | 0.00 | 0.00 | 95 | 1005.0 |
| 20260509073815 | 51 | 200 | 6.0 | 9.0 | 0.00 | 0.00 | 0.00 | 95 | 1005.2 |
| 20260509073311 | 51 | 210 | 5.0 | 9.0 | 0.00 | 0.00 | 0.00 | 95 | 1005.2 |
| 20260509072808 | 51 | 215 | 4.0 | 7.0 | 0.00 | 0.00 | 0.00 | 94 | 1005.3 |
| 20260509072306 | 51 | 206 | 4.0 | 4.0 | 0.00 | 0.00 | 0.00 | 94 | 1005.6 |
| 20260509071801 | 52 | 220 | 5.0 | 6.0 | 0.00 | 0.00 | 0.00 | 94 | 1005.6 |
| 20260509071258 | 52 | 210 | 2.0 | 9.0 | 0.00 | 0.00 | 0.00 | 94 | 1005.5 |
| 20260509070755 | 52 | 205 | 5.0 | 9.0 | 0.00 | 0.00 | 0.00 | 94 | 1005.4 |
| 20260509070252 | 52 | 239 | 2.0 | 6.0 | 0.00 | 0.00 | 0.00 | 93 | 1005.7 |
| 20260509065748 | 52 | 210 | 7.0 | 12.0 | 0.00 | 0.00 | 0.00 | 93 | 1005.6 |
| 20260509065245 | 52 | 210 | 5.0 | 9.0 | 0.00 | 0.00 | 0.00 | 93 | 1005.5 |
| 20260509064741 | 52 | 229 | 3.0 | 11.0 | 0.00 | 0.00 | 0.00 | 92 | 1005.6 |
| 20260509064239 | 52 | 201 | 5.0 | 10.0 | 0.00 | 0.00 | 0.00 | 93 | 1005.7 |
| 20260509063736 | 52 | 221 | 2.0 | 8.0 | 0.00 | 0.00 | 0.00 | 92 | 1005.8 |
| 20260509063232 | 53 | 253 | 2.0 | 9.0 | 0.00 | 0.00 | 0.00 | 92 | 1005.6 |
| 20260509062729 | 53 | 218 | 4.0 | 11.0 | 0.00 | 0.00 | 0.00 | 92 | 1005.7 |
| 20260509062226 | 53 | 224 | 3.0 | 6.0 | 0.00 | 0.00 | 0.00 | 92 | 1005.7 |
| 20260509061723 | 53 | 211 | 5.0 | 12.0 | 0.00 | 0.00 | 0.00 | 92 | 1005.6 |
| 20260509061221 | 53 | 269 | 0.0 | 5.0 | 0.00 | 0.00 | 0.00 | 92 | 1005.8 |
| 20260509060719 | 53 | 220 | 5.0 | 6.0 | 0.00 | 0.00 | 0.00 | 92 | 1006.1 |
| 20260509060214 | 53 | 192 | 3.0 | 10.0 | 0.00 | 0.00 | 0.00 | 91 | 1006.2 |
| 20260509055710 | 53 | 186 | 3.0 | 5.0 | 0.00 | 0.00 | 0.00 | 91 | 1006.1 |
| 20260509055206 | 53 | 209 | 2.0 | 7.0 | 0.00 | 0.00 | 0.00 | 91 | 1006.5 |
| 20260509054703 | 53 | 247 | 3.0 | 6.0 | 0.00 | 0.00 | 0.00 | 91 | 1006.3 |
| 20260509054201 | 53 | 241 | 2.0 | 7.0 | 0.00 | 0.00 | 0.00 | 91 | 1006.5 |
| 20260509053659 | 53 | 201 | 6.0 | 6.0 | 0.00 | 0.00 | 0.00 | 91 | 1006.3 |
| 20260509053155 | 54 | 199 | 5.0 | 8.0 | 0.00 | 0.00 | 0.00 | 90 | 1006.2 |
| 20260509052653 | 54 | 243 | 3.0 | 15.0 | 0.00 | 0.00 | 0.00 | 90 | 1006.2 |
| 20260509052151 | 54 | 216 | 3.0 | 10.0 | 0.00 | 0.00 | 0.00 | 90 | 1006.3 |
| 20260509051648 | 54 | 206 | 10.0 | 11.0 | 0.00 | 0.00 | 0.00 | 90 | 1006.5 |
| 20260509051145 | 54 | 214 | 3.0 | 4.0 | 0.00 | 0.00 | 0.00 | 90 | 1006.3 |
| 20260509050642 | 54 | 207 | 3.0 | 10.0 | 0.00 | 0.00 | 0.00 | 90 | 1006.1 |
| 20260509050139 | 55 | 209 | 4.0 | 10.0 | 0.00 | 0.00 | 0.00 | 89 | 1006.0 |
| 20260509045636 | 55 | 212 | 4.0 | 12.0 | 0.00 | 0.00 | 0.00 | 89 | 1006.2 |
| 20260509045133 | 55 | 204 | 4.0 | 8.0 | 0.00 | 0.00 | 0.00 | 89 | 1006.2 |
| 20260509044630 | 55 | 213 | 4.0 | 9.0 | 0.00 | 0.00 | 0.00 | 89 | 1006.5 |
| 20260509044128 | 55 | 208 | 5.0 | 9.0 | 0.00 | 0.00 | 0.00 | 88 | 1006.4 |
| 20260509043624 | 55 | 238 | 2.0 | 9.0 | 0.00 | 0.00 | 0.00 | 88 | 1006.5 |
| 20260509043120 | 55 | 213 | 4.0 | 6.0 | 0.00 | 0.00 | 0.00 | 88 | 1006.5 |
| 20260509042616 | 55 | 203 | 7.0 | 12.0 | 0.00 | 0.00 | 0.00 | 87 | 1006.7 |
| 20260509042112 | 55 | 201 | 3.0 | 8.0 | 0.00 | 0.00 | 0.00 | 87 | 1006.5 |
| 20260509041609 | 55 | 225 | 1.0 | 7.0 | 0.00 | 0.00 | 0.00 | 86 | 1006.4 |
| 20260509041107 | 55 | 203 | 3.0 | 9.0 | 0.00 | 0.00 | 0.00 | 86 | 1006.6 |
| 20260509040605 | 56 | 225 | 4.0 | 10.0 | 0.00 | 0.00 | 0.00 | 85 | 1006.4 |
| 20260509035558 | 56 | 199 | 4.0 | 9.0 | 0.00 | 0.00 | 0.00 | 84 | 1006.6 |
| 20260509035055 | 56 | 217 | 8.0 | 13.0 | 0.00 | 0.00 | 0.00 | 83 | 1006.6 |
| 20260509034553 | 56 | 166 | 8.0 | 10.0 | 0.00 | 0.00 | 0.00 | 83 | 1006.6 |
| 20260509034050 | 57 | 194 | 3.0 | 15.0 | 0.00 | 0.00 | 0.00 | 82 | 1006.7 |
| 20260509033547 | 57 | 187 | 7.0 | 11.0 | 0.00 | 0.00 | 0.00 | 81 | 1006.7 |
| 20260509033044 | 57 | 221 | 5.0 | 8.0 | 0.00 | 0.00 | 0.00 | 80 | 1006.6 |
| 20260509032541 | 57 | 244 | 5.0 | 14.0 | 0.00 | 0.00 | 0.00 | 79 | 1007.0 |